TimeCST,TemperatureF,Dew PointF,Humidity,Sea Level PressureIn,VisibilityMPH,Wind Direction,Wind SpeedMPH,Gust SpeedMPH,PrecipitationIn,Events,Conditions,WindDirDegrees,DateUTC
12:35 AM,35.6,33.8,93,29.99,10.0,South,9.2,-,N/A,,Clear,170,2011-12-29 06:35:00
1:15 AM,37.4,33.8,87,29.98,10.0,South,9.2,-,N/A,,Clear,180,2011-12-29 07:15:00
1:35 AM,37.4,33.8,87,29.98,10.0,South,10.4,-,N/A,,Clear,190,2011-12-29 07:35:00
1:55 AM,37.4,33.8,87,29.99,10.0,South,8.1,-,N/A,,Clear,190,2011-12-29 07:55:00
2:15 AM,35.6,33.8,93,29.98,10.0,South,8.1,-,N/A,,Clear,190,2011-12-29 08:15:00
2:35 AM,35.6,33.8,93,29.98,10.0,SSW,8.1,-,N/A,,Clear,200,2011-12-29 08:35:00
2:55 AM,35.6,33.8,93,29.98,10.0,South,9.2,-,N/A,,Clear,190,2011-12-29 08:55:00
3:15 AM,35.6,33.8,93,29.97,10.0,South,8.1,-,N/A,,Clear,180,2011-12-29 09:15:00
3:55 AM,35.6,33.8,93,29.96,10.0,South,8.1,-,N/A,,Clear,180,2011-12-29 09:55:00
4:15 AM,35.6,33.8,93,29.95,10.0,South,8.1,-,N/A,,Clear,180,2011-12-29 10:15:00
4:35 AM,35.6,33.8,93,29.94,10.0,South,9.2,-,N/A,,Clear,190,2011-12-29 10:35:00
5:15 AM,35.6,33.8,93,29.94,10.0,South,10.4,-,N/A,,Clear,190,2011-12-29 11:15:00
5:35 AM,35.6,33.8,93,29.94,10.0,South,8.1,-,N/A,,Clear,190,2011-12-29 11:35:00
5:55 AM,35.6,33.8,93,29.94,10.0,South,9.2,-,N/A,,Clear,190,2011-12-29 11:55:00
6:55 AM,35.6,33.8,93,29.95,10.0,South,9.2,-,N/A,,Clear,190,2011-12-29 12:55:00
7:15 AM,35.6,33.8,93,29.95,10.0,South,9.2,-,N/A,,Clear,190,2011-12-29 13:15:00
7:35 AM,35.6,33.8,93,29.95,10.0,South,10.4,-,N/A,,Clear,190,2011-12-29 13:35:00
7:55 AM,35.6,33.8,93,29.95,10.0,South,10.4,-,N/A,,Clear,190,2011-12-29 13:55:00
8:35 AM,39.2,35.6,87,29.95,10.0,South,11.5,-,N/A,,Clear,190,2011-12-29 14:35:00
8:55 AM,39.2,35.6,87,29.95,10.0,South,11.5,-,N/A,,Clear,190,2011-12-29 14:55:00
9:15 AM,41.0,35.6,81,29.95,10.0,South,11.5,-,N/A,,Clear,190,2011-12-29 15:15:00
9:35 AM,42.8,35.6,76,29.95,10.0,South,9.2,-,N/A,,Clear,190,2011-12-29 15:35:00
9:55 AM,44.6,37.4,76,29.95,10.0,South,12.7,-,N/A,,Clear,190,2011-12-29 15:55:00
10:15 AM,46.4,37.4,71,29.94,10.0,South,12.7,-,N/A,,Clear,190,2011-12-29 16:15:00
11:15 AM,50.0,37.4,62,29.92,10.0,SW,16.1,-,N/A,,Clear,220,2011-12-29 17:15:00
11:35 AM,51.8,37.4,58,29.91,10.0,SSW,15.0,-,N/A,,Clear,210,2011-12-29 17:35:00
11:55 AM,53.6,39.2,58,29.90,10.0,South,13.8,-,N/A,,Clear,190,2011-12-29 17:55:00
12:15 PM,53.6,42.8,67,29.88,10.0,South,16.1,-,N/A,,Clear,190,2011-12-29 18:15:00
12:35 PM,51.8,42.8,71,29.87,10.0,South,16.1,19.6,N/A,,Clear,190,2011-12-29 18:35:00
12:55 PM,53.6,42.8,67,29.86,10.0,SSW,18.4,-,N/A,,Clear,200,2011-12-29 18:55:00
1:15 PM,53.6,42.8,67,29.86,10.0,South,17.3,-,N/A,,Clear,190,2011-12-29 19:15:00
1:35 PM,55.4,42.8,63,29.86,10.0,SSW,18.4,-,N/A,,Clear,200,2011-12-29 19:35:00
1:55 PM,55.4,42.8,63,29.85,10.0,South,17.3,-,N/A,,Clear,190,2011-12-29 19:55:00
2:35 PM,55.4,42.8,63,29.85,10.0,South,18.4,-,N/A,,Clear,190,2011-12-29 20:35:00
3:15 PM,55.4,42.8,63,29.84,10.0,South,16.1,-,N/A,,Clear,190,2011-12-29 21:15:00
3:35 PM,55.4,42.8,63,29.85,10.0,South,17.3,-,N/A,,Clear,180,2011-12-29 21:35:00
3:55 PM,55.4,42.8,63,29.84,10.0,South,18.4,-,N/A,,Clear,190,2011-12-29 21:55:00
4:15 PM,53.6,42.8,67,29.85,10.0,South,18.4,-,N/A,,Clear,180,2011-12-29 22:15:00
4:35 PM,53.6,42.8,67,29.84,10.0,South,13.8,-,N/A,,Clear,180,2011-12-29 22:35:00
4:55 PM,51.8,42.8,71,29.84,10.0,South,15.0,-,N/A,,Clear,180,2011-12-29 22:55:00
5:15 PM,51.8,42.8,71,29.84,10.0,South,12.7,-,N/A,,Clear,180,2011-12-29 23:15:00
5:35 PM,50.0,44.6,82,29.84,10.0,South,15.0,-,N/A,,Clear,180,2011-12-29 23:35:00
5:55 PM,50.0,42.8,76,29.85,10.0,South,13.8,19.6,N/A,,Clear,180,2011-12-29 23:55:00
6:15 PM,51.8,42.8,71,29.84,10.0,South,17.3,-,N/A,,Clear,180,2011-12-30 00:15:00
6:35 PM,50.0,42.8,76,29.84,10.0,South,13.8,-,N/A,,Clear,180,2011-12-30 00:35:00
6:55 PM,48.2,42.8,82,29.84,10.0,South,15.0,-,N/A,,Clear,180,2011-12-30 00:55:00
7:15 PM,48.2,42.8,82,29.84,10.0,South,12.7,-,N/A,,Clear,180,2011-12-30 01:15:00
7:35 PM,48.2,42.8,82,29.83,10.0,South,16.1,-,N/A,,Clear,180,2011-12-30 01:35:00
7:55 PM,46.4,42.8,87,29.83,10.0,South,13.8,-,N/A,,Clear,180,2011-12-30 01:55:00
8:35 PM,46.4,42.8,87,29.83,10.0,South,11.5,-,N/A,,Clear,180,2011-12-30 02:35:00
8:55 PM,48.2,44.6,87,29.82,10.0,South,12.7,-,N/A,,Clear,180,2011-12-30 02:55:00
9:35 PM,48.2,44.6,87,29.83,10.0,South,11.5,-,N/A,,Clear,180,2011-12-30 03:35:00
9:55 PM,48.2,44.6,87,29.83,10.0,South,13.8,-,N/A,,Clear,180,2011-12-30 03:55:00
10:15 PM,48.2,44.6,87,29.83,10.0,South,15.0,-,N/A,,Clear,180,2011-12-30 04:15:00
10:35 PM,48.2,44.6,87,29.83,10.0,South,13.8,-,N/A,,Clear,180,2011-12-30 04:35:00
11:15 PM,46.4,44.6,93,29.81,10.0,South,15.0,-,N/A,,Clear,180,2011-12-30 05:15:00
11:35 PM,46.4,44.6,93,29.80,10.0,South,13.8,-,N/A,,Clear,180,2011-12-30 05:35:00
11:55 PM,48.2,44.6,87,29.80,10.0,South,15.0,-,N/A,,Clear,190,2011-12-30 05:55:00